Tracking 19242 objects as of 18-Sep-2018
HD Live streaming from Space Station
objects crossing your sky now

FENGYUN 1C DEB

Track FENGYUN 1C DEB now!
10-day predictions


NORAD ID: 35152
Int'l Code: 1999-025DMG
Perigee: 852.8 km
Apogee: 1,144.6 km
Inclination: 99.6 °
Period: 104.9 minutes
Semi major axis: 7369 km
RCS: 0.009 m2 (small)
Launch date: May 10, 1999
Source: People's Republic of China (PRC)
Launch site: Taiyaun Space Center, China (TSC)

Note: This is SATELLITE DEBRIS
aabbcc
Your satellite tracking list
Your tracking list is empty




NASA's NSSDC Master Catalog

Two Line Element Set (TLE):
1 35152U 99025DMG 18259.50832976 +.00000509 +00000-0 +52873-3 0  9998
2 35152 099.6261 000.8945 0197925 010.9912 349.5467 13.72234150258845
Source of the keplerian elements: AFSPC